Hourly Data Report for November 18, 2018

CARBERRY CS
MANITOBA
Current Station Operator: ECCC - MSC

49°54'20.900" N
99°21'26.800" W
383.50 m
5010547
71170
WZE

Download Data

Hourly Data (November 2018)
Hourly Data Report for November 18, 2018
TIME
LST
Temp Definition
°C
Dew Point Definition
°C
Rel Hum Definition
%
Precip. Amount Definition
mm

Wind Dir Definition
10's deg

Wind Spd Definition
km/h
Visibility Definition
km
Stn Press Definition
kPa
Hmdx Definition


Wind Chill Definition


Weather Definition


00:00 -13.2 -15.7 82 0.0 23 12   97.27   -20 LegendNANA
01:00 -13.4 -15.9 81 0.0 27 12   97.26   -20 LegendNANA
02:00 -13.2 -15.4 84 0.0 26 8   97.21   -18 LegendNANA
03:00 -12.9 -15.2 83 0.0 26 8   97.15   -18 LegendNANA
04:00 -12.8 -15.1 83 0.0 28 7   97.11   -17 LegendNANA
05:00 -12.5 -14.7 83 0.0 27 6   97.05   -16 LegendNANA
06:00 -12.0 -14.4 82 0.0 29 5   97.04   -15 LegendNANA
07:00 -11.9 -14.3 82 0.0 34 5   97.05   -15 LegendNANA
08:00 -11.4 -13.8 82 0.0 3 8   97.06   -16 LegendNANA
09:00 -10.8 -13.3 82 0.0 4 16   97.06   -18 LegendNANA
10:00 -10.7 -13.0 83 0.0 4 19   97.11   -19 LegendNANA
11:00 -10.8 -13.5 81 0.0 4 18   97.15   -18 LegendNANA
12:00 -11.0 -14.0 79 0.0 4 18   97.16   -19 LegendNANA
13:00 -10.9 -14.5 75 0.0 4 17   97.15   -18 LegendNANA
14:00 -11.3 -14.8 75 0.0 5 18   97.14   -19 LegendNANA
15:00 -11.5 -15.1 75 0.0 5 19   97.18   -20 LegendNANA
16:00 -11.9 -15.4 75 0.0 4 15   97.26   -19 LegendNANA
17:00 -12.4 -16.2 73 0.0 3 17   97.29   -20 LegendNANA
18:00 -12.5 -16.3 73 0.0 3 15   97.36   -20 LegendNANA
19:00 -12.8 -16.1 77 0.0 3 17   97.43   -21 LegendNANA
20:00 -13.3 -16.9 74 0.0 5 17   97.50   -21 LegendNANA
21:00 -13.9 -17.4 75 0.0 5 16   97.54   -22 LegendNANA
22:00 -14.2 -17.8 74 0.0 5 13   97.62   -21 LegendNANA
23:00 -14.4 -18.3 73 0.0 4 15   97.68   -22 LegendNANA

Notes on Data Quality.

Legend

  • E = Estimated
  • M = Missing
  • NA = Not Available*
  • [empty] = Indicates an unobserved value
Date modified: